[[[{"header":{"parameterUnit":"kt","parameterCategory":2,"dx":1,"dy":1,"la1":30.253999710083008,"la2":30.299108505249023,"lo1":-89.0895004272461,"lo2":-89.04439544677734,"nx":28,"ny":28,"refTime":"2022-10-20T21:00:00:Z","depth":0,"parameterNumber":1,"parameterNumberName":"U-component_of_WINDS"},"data":[2.4773,2.4789,2.4783,2.4798,2.4795,2.4805,2.4807,2.4809,2.4808,2.482,2.4826,2.4821,2.4819,2.4824,2.4831,2.4829,2.4832,2.4843,2.4839,2.4797,2.4791,2.4785,2.478,2.4843,2.4843,2.4883,2.4884,2.4884,2.4744,2.4741,2.4747,2.4749,2.4754,2.4741,2.4741,2.4747,2.4756,2.4756,2.4761,2.4771,2.4778,2.4771,2.4777,2.4786,2.478,2.4788,2.4787,2.4787,2.4742,2.4738,2.4792,2.4792,2.4792,2.4792,2.4792,2.4792,2.4689,2.4699,2.4696,2.4703,2.4702,2.4703,2.4712,2.4706,2.4712,2.4717,2.4708,2.4719,2.4717,2.4721,2.4721,2.4729,2.472,2.4726,2.4728,2.4731,2.4734,2.4679,2.473,2.473,2.473,2.4729,2.4729,0,2.4648,2.4642,2.4647,2.465,2.4655,2.4657,2.4658,2.4663,2.4648,2.4654,2.4662,2.4666,2.4673,2.468,2.4684,2.4682,2.4669,2.4667,2.4672,2.4677,2.4681,2.468,2.4607,2.4666,2.4665,2.4665,2.4664,2.4664,2.4593,2.4605,2.4598,2.4603,2.4602,2.4609,2.4613,2.4598,2.4603,2.4602,2.4612,2.4618,2.4623,2.4637,2.463,2.4636,2.463,2.4653,2.4631,2.4635,2.4631,2.4631,2.4633,2.4658,2.4659,2.4659,2.466,0,2.4563,2.4552,2.4568,2.4561,2.4559,2.4572,2.4566,2.4575,2.4568,2.458,2.4582,2.4571,2.4579,2.4568,2.4576,2.457,2.4593,2.4586,2.4594,2.4592,2.4613,2.4611,2.4678,2.4687,2.462,2.4621,2.4622,0,2.4513,2.4529,2.4511,2.4521,2.4539,2.4523,2.4541,2.4537,2.4535,2.4544,2.4526,2.4535,2.452,2.4527,2.4519,2.4536,2.4537,2.4534,2.4531,2.4536,2.4536,2.4539,2.4536,2.4524,2.4524,2.4524,2.4524,0,2.4468,2.4477,2.4493,2.4493,2.4486,2.4494,2.4492,2.4489,2.4492,2.4495,2.4497,2.4501,2.4503,2.4507,2.4496,2.4482,2.4516,2.4494,2.4513,2.4514,2.4522,2.4522,2.4583,2.4523,2.4523,2.4523,2.4523,0,2.4426,2.4428,2.4452,2.4446,2.4449,2.4459,2.4462,2.4468,2.4467,2.4462,2.4463,2.4451,2.4463,2.4442,2.446,2.4445,2.4448,2.4446,2.4447,2.4448,2.4425,2.4463,2.4521,2.4528,2.4449,2.4448,2.4448,0,2.4379,2.4399,2.4386,2.4409,2.4417,2.4397,2.4408,2.4407,2.4401,2.4408,2.4401,2.4409,2.439,2.4391,2.4401,2.4395,2.4416,2.4392,2.4403,2.4404,2.4405,2.4459,2.4471,2.4509,2.444,2.4441,2.4441,0,2.434,2.4331,2.4336,2.4336,2.4331,2.4337,2.435,2.4353,2.4359,2.4359,2.4369,2.4379,2.4366,2.4367,2.4357,2.4368,2.4402,2.4353,2.4353,2.4363,2.4434,2.4446,2.4452,2.4392,2.4393,2.4394,2.4435,0,2.4281,2.4289,2.4302,2.4301,2.4304,2.4317,2.4305,2.431,2.4299,2.4293,2.4308,2.4303,2.4307,2.4311,2.4301,2.433,2.4324,2.4309,2.4288,2.4323,2.4337,2.4342,2.427,2.4269,2.4269,2.4268,0,0,2.4239,2.4251,2.4235,2.4246,2.4248,2.4226,2.4242,2.4241,2.424,2.4242,2.4229,2.4243,2.424,2.4259,2.4269,2.4271,2.4275,2.4263,2.4307,2.4311,2.4315,2.4329,2.4335,2.4267,2.4267,2.4267,2.4266,0,2.4215,2.4211,2.4226,2.4224,2.4221,2.4212,2.4216,2.4209,2.4205,2.4219,2.4202,2.4209,2.4219,2.4219,2.422,2.426,2.4247,2.4262,2.4288,2.4301,2.4306,2.4311,2.4326,2.4332,2.4265,2.4265,2.4265,0,2.4176,2.417,2.4175,2.4177,2.4175,2.4183,2.4158,2.4167,2.4174,2.415,2.4164,2.416,2.4158,2.4178,2.4186,2.4175,2.4222,2.4204,2.4208,2.4209,2.4221,2.4227,2.4232,2.416,2.416,2.4159,0,0,2.4156,2.4164,2.4153,2.4171,2.417,2.4158,2.4161,2.4151,2.4149,2.4148,2.4142,2.4141,2.4147,2.4152,2.4156,2.418,2.4179,2.4192,2.4197,2.4201,2.4204,2.4217,2.4223,2.4158,2.4158,2.4158,0,0,2.4147,2.4135,2.4125,2.4144,2.4143,2.4133,2.4145,2.4132,2.4135,2.4132,2.4116,2.4115,2.4133,2.4129,2.4115,2.4149,2.4128,2.4131,2.4151,2.4157,2.4161,2.4162,2.4089,0,0,0,0,0,2.4116,2.4137,2.4128,2.4129,2.413,2.4139,2.4139,2.4125,2.4111,2.4121,2.4114,2.4099,2.4118,2.4105,2.4107,2.4123,2.4143,2.4146,2.4148,2.4178,2.4185,2.419,0,0,0,0,0,0,2.4116,2.4117,2.4127,2.4119,2.4119,2.4138,2.4111,2.4108,2.411,2.4107,2.4101,2.4099,2.4088,2.4103,2.4105,2.4121,2.4088,2.4144,2.4146,2.4148,2.4181,2.4186,2.419,0,0,0,0,0,2.4116,2.4117,2.4124,2.4118,2.4119,2.4106,2.411,2.4107,2.4108,2.4098,2.4095,2.4098,2.4089,2.4089,2.4104,2.4121,2.4087,2.4087,2.4146,2.4147,2.4149,2.4183,0,0,0,0,0,0,2.4116,2.4115,2.4123,2.4123,2.4109,2.4105,2.4103,2.4107,2.4099,2.4097,2.4094,2.4092,2.4089,2.409,2.409,2.4121,2.4086,2.4086,2.4087,2.4147,2.4148,2.415,0,0,0,0,0,0,2.4114,2.4115,2.4123,2.4112,2.411,2.4103,2.4102,2.4113,2.4099,2.4096,2.4093,2.4093,2.4089,2.409,2.409,2.4108,2.4085,2.4086,2.4086,2.4086,2.4148,2.4149,0,0,0,0,0,0,2.4114,2.4115,2.4112,2.4111,2.4109,2.4104,2.4113,2.4116,2.4089,2.4096,2.4087,2.4085,2.409,2.409,2.4091,2.4108,2.4108,2.4085,2.4085,2.4086,2.4086,0,0,0,0,0,0,0,2.4114,2.4114,2.4126,2.411,2.4108,2.4119,2.4119,2.4119,2.4089,2.4088,2.4087,2.4086,2.4081,2.4082,2.4082,2.4109,0,0,2.4085,2.4085,0,0,0,0,0,0,0,0,2.4114,2.4114,2.4126,2.4126,2.4125,2.4119,2.4119,2.4119,2.4089,2.4088,2.4087,2.4086,2.4081,2.4082,2.4082,0,0,0,0,0,0,0,0,0,0,0,0,0,0,0,2.4126,2.4126,0,2.4119,2.4119,2.4119,2.4089,2.4088,2.4087,2.4087,2.4081,2.4082,2.4082,0,0,0,0,0,0,0,0,0,0,0,0,0,0,0,0,0,0,0,0,0,0,0,0,0,0,0,0,0,0,0,0,0,0,0,0,0,0,0,0,0,0,0,0,0,0,0,0,0,0,0,0,0,0,0,0,0,0,0,0,0,0,0,0,0,0,0,0,0]}],[{"header":{"parameterUnit":"kt","parameterCategory":2,"dx":1,"dy":1,"la1":30.253999710083008,"la2":30.299108505249023,"lo1":-89.0895004272461,"lo2":-89.04439544677734,"nx":28,"ny":28,"refTime":"2022-10-20T21:00:00:Z","depth":0,"parameterNumber":2,"parameterNumberName":"V-component_of_WINDS"},"data":[-1.2728,-1.2743,-1.2733,-1.2746,-1.2739,-1.2747,-1.2747,-1.2745,-1.2741,-1.275,-1.2753,-1.2745,-1.2737,-1.2739,-1.2742,-1.2738,-1.2742,-1.2757,-1.275,-1.2692,-1.2684,-1.2676,-1.2672,-1.2757,-1.2757,-1.2811,-1.2812,-1.2812,-1.2696,-1.2689,-1.2691,-1.2687,-1.269,-1.2671,-1.2666,-1.267,-1.2677,-1.2671,-1.2673,-1.2679,-1.2682,-1.2668,-1.267,-1.2679,-1.267,-1.268,-1.2681,-1.268,-1.2618,-1.2614,-1.2688,-1.2688,-1.2688,-1.2688,-1.2688,-1.2688,-1.2633,-1.2641,-1.2632,-1.2634,-1.2628,-1.2626,-1.2632,-1.262,-1.2622,-1.2621,-1.2606,-1.2614,-1.2606,-1.26,-1.2595,-1.2602,-1.2588,-1.2596,-1.2598,-1.2601,-1.2608,-1.2538,-1.2601,-1.26,-1.26,-1.26,-1.26,0,-1.2584,-1.2575,-1.2575,-1.2573,-1.2573,-1.257,-1.2565,-1.2568,-1.2542,-1.2544,-1.2548,-1.2548,-1.2548,-1.255,-1.2547,-1.254,-1.2519,-1.2514,-1.252,-1.253,-1.254,-1.2539,-1.2442,-1.2512,-1.2512,-1.2511,-1.2511,-1.251,-1.2523,-1.2532,-1.2514,-1.2516,-1.251,-1.2512,-1.2512,-1.2487,-1.2488,-1.2477,-1.2486,-1.2487,-1.2486,-1.2492,-1.2476,-1.2476,-1.2466,-1.2495,-1.2465,-1.2475,-1.247,-1.2471,-1.2474,-1.2502,-1.2503,-1.2504,-1.2504,0,-1.2491,-1.247,-1.2479,-1.246,-1.2455,-1.2466,-1.245,-1.2456,-1.2442,-1.2449,-1.2449,-1.2426,-1.2429,-1.2407,-1.2404,-1.2394,-1.2417,-1.2405,-1.2422,-1.2419,-1.2446,-1.2445,-1.2528,-1.2539,-1.2448,-1.2449,-1.2449,0,-1.2432,-1.2443,-1.2412,-1.2418,-1.2432,-1.2405,-1.2419,-1.2407,-1.2397,-1.2402,-1.2373,-1.2379,-1.2349,-1.2352,-1.2335,-1.2349,-1.2347,-1.2341,-1.2337,-1.2345,-1.2346,-1.2346,-1.2343,-1.2322,-1.2321,-1.2321,-1.2321,0,-1.2384,-1.2378,-1.2388,-1.2384,-1.2362,-1.2367,-1.2359,-1.2345,-1.2344,-1.2338,-1.2337,-1.2332,-1.233,-1.2327,-1.2306,-1.2287,-1.2321,-1.229,-1.2315,-1.2316,-1.2324,-1.2324,-1.2402,-1.232,-1.232,-1.232,-1.232,0,-1.2333,-1.2326,-1.2341,-1.2323,-1.2323,-1.2328,-1.2322,-1.232,-1.2308,-1.2298,-1.2292,-1.227,-1.2277,-1.225,-1.2261,-1.2243,-1.2243,-1.2236,-1.2237,-1.2238,-1.2208,-1.2259,-1.2333,-1.2341,-1.2239,-1.2238,-1.2237,0,-1.2287,-1.2295,-1.2271,-1.2286,-1.2286,-1.2255,-1.226,-1.2249,-1.2235,-1.2234,-1.2218,-1.2217,-1.2191,-1.2187,-1.2195,-1.2179,-1.2202,-1.2175,-1.2178,-1.2179,-1.2186,-1.2253,-1.2271,-1.2319,-1.2228,-1.2229,-1.223,0,-1.2248,-1.2218,-1.2222,-1.2216,-1.2194,-1.2193,-1.2199,-1.219,-1.2192,-1.218,-1.2186,-1.2181,-1.2163,-1.2156,-1.2135,-1.2145,-1.2186,-1.2123,-1.2122,-1.2138,-1.222,-1.2238,-1.2246,-1.2171,-1.2172,-1.2172,-1.2222,0,-1.2181,-1.218,-1.2188,-1.2171,-1.2166,-1.2172,-1.2145,-1.2144,-1.2126,-1.2109,-1.2115,-1.2096,-1.2087,-1.2088,-1.2068,-1.2096,-1.2088,-1.2067,-1.2039,-1.2082,-1.2098,-1.2104,-1.2018,-1.2017,-1.2016,-1.2015,0,0,-1.2144,-1.2141,-1.2111,-1.2114,-1.2108,-1.2072,-1.2082,-1.2071,-1.2051,-1.2048,-1.2032,-1.2023,-1.2007,-1.2017,-1.2028,-1.2023,-1.2027,-1.2011,-1.2061,-1.2066,-1.2071,-1.2089,-1.2095,-1.2014,-1.2013,-1.2013,-1.2013,0,-1.2114,-1.2097,-1.2105,-1.2093,-1.2074,-1.2054,-1.2057,-1.2031,-1.202,-1.2023,-1.1994,-1.1993,-1.1983,-1.1973,-1.1966,-1.2009,-1.1987,-1.2008,-1.2042,-1.2053,-1.206,-1.2065,-1.2084,-1.2091,-1.2011,-1.2011,-1.2011,0,-1.2073,-1.2053,-1.2053,-1.2034,-1.202,-1.202,-1.1984,-1.1983,-1.1983,-1.1942,-1.1945,-1.1931,-1.1912,-1.1923,-1.1926,-1.1912,-1.1954,-1.1933,-1.1938,-1.1938,-1.1948,-1.1955,-1.1962,-1.1873,-1.1873,-1.1872,0,0,-1.2051,-1.2047,-1.2016,-1.2025,-1.2019,-1.1989,-1.1985,-1.1965,-1.1949,-1.1942,-1.1922,-1.1908,-1.1903,-1.19,-1.1892,-1.1907,-1.1902,-1.1917,-1.1924,-1.1929,-1.1932,-1.1944,-1.1951,-1.1871,-1.1871,-1.1871,0,0,-1.2039,-1.2004,-1.1987,-1.1993,-1.1979,-1.1949,-1.1956,-1.1935,-1.1925,-1.1921,-1.1887,-1.1882,-1.189,-1.1876,-1.1862,-1.1882,-1.1855,-1.1857,-1.1891,-1.1899,-1.1905,-1.1909,-1.1822,0,0,0,0,0,-1.1993,-1.2008,-1.1994,-1.199,-1.1964,-1.1957,-1.1954,-1.1926,-1.1908,-1.1915,-1.1896,-1.187,-1.1862,-1.1849,-1.1846,-1.1863,-1.1854,-1.1857,-1.186,-1.1906,-1.1915,-1.1922,0,0,0,0,0,0,-1.1992,-1.1988,-1.1993,-1.1964,-1.1958,-1.1956,-1.1921,-1.1913,-1.1907,-1.1902,-1.1875,-1.187,-1.1846,-1.1848,-1.1846,-1.1862,-1.1822,-1.1855,-1.1858,-1.186,-1.1909,-1.1916,-1.1922,0,0,0,0,0,-1.199,-1.1987,-1.1952,-1.1964,-1.1958,-1.1925,-1.192,-1.1913,-1.1908,-1.1876,-1.187,-1.1887,-1.1847,-1.1843,-1.1847,-1.1864,-1.1823,-1.1823,-1.1857,-1.1859,-1.1861,-1.1913,0,0,0,0,0,0,-1.1989,-1.1981,-1.1951,-1.1948,-1.1955,-1.1925,-1.1919,-1.1914,-1.1881,-1.1875,-1.1886,-1.1883,-1.1848,-1.1845,-1.1842,-1.1866,-1.1824,-1.1824,-1.1823,-1.1858,-1.186,-1.1861,0,0,0,0,0,0,-1.1983,-1.1979,-1.1949,-1.194,-1.1936,-1.1925,-1.1919,-1.1917,-1.1882,-1.1893,-1.189,-1.1885,-1.1852,-1.1846,-1.1844,-1.1842,-1.1825,-1.1824,-1.1824,-1.1824,-1.1859,-1.1861,0,0,0,0,0,0,-1.1981,-1.1978,-1.194,-1.1937,-1.1934,-1.1902,-1.1922,-1.1897,-1.1873,-1.1895,-1.1871,-1.1869,-1.1854,-1.1851,-1.1845,-1.1844,-1.1842,-1.1825,-1.1824,-1.1824,-1.1824,0,0,0,0,0,0,0,-1.1979,-1.2006,-1.1966,-1.1935,-1.1932,-1.1924,-1.1923,-1.1923,-1.1873,-1.1872,-1.1871,-1.187,-1.1828,-1.1827,-1.1827,-1.1846,0,0,-1.1825,-1.1825,0,0,0,0,0,0,0,0,-1.2007,-1.2006,-1.1966,-1.1965,-1.1965,-1.1924,-1.1923,-1.1923,-1.1873,-1.1872,-1.1871,-1.187,-1.1828,-1.1827,-1.1827,0,0,0,0,0,0,0,0,0,0,0,0,0,0,0,-1.1966,-1.1965,0,-1.1924,-1.1923,-1.1923,-1.1873,-1.1872,-1.1871,-1.1871,-1.1828,-1.1827,-1.1827,0,0,0,0,0,0,0,0,0,0,0,0,0,0,0,0,0,0,0,0,0,0,0,0,0,0,0,0,0,0,0,0,0,0,0,0,0,0,0,0,0,0,0,0,0,0,0,0,0,0,0,0,0,0,0,0,0,0,0,0,0,0,0,0,0,0,0,0,0]}]]]